Back to catalog

FENGYUN 1C DEB

AliveSSO
NORAD 31890·DEBRIS·🇨🇳 China

Launched May 10, 1999 from Taiyuan Satellite Launch Center

Loading…

Next Passes (next 24 hours)

TLE

FreshSource: Space-Track

Epoch: Sep 13, 2026, 05:54 UTC

1 31890U 99025CKR 26256.24641772  .00000169  00000-0  11637-3 0  9997
2 31890  98.7151 264.3373 0072282 183.6138 176.4520 14.10242304680216

Track FENGYUN 1C DEB in real time with AllMySat

Download on the App Store